sat.trackr.live / text

‹ back to catalog

ONEWEB-0187

NORAD 48221 · 2021-031M

PAYLOAD ACTIVE UNKNOWN

§ Identity

Operator
Country
UK
Launch date
2021-04-25
Launch site
VOSTO
Launch vehicle
Mass (kg)
RCS (m²)

Purposes: comms

External: N2YO · Heavens-Above · Gunter

§ Orbital elements

Epoch: 2026-09-14T11:37:15.466656Z

Period
109.55 min
Inclination
87.8892°
Eccentricity
0.0001752
Mean motion
13.14504210 rev/d
Perigee alt
1,204.5 km
Apogee alt
1,207.1 km
Semi-major
7,583.9 km
B*
3.2194e-4
RAAN
271.9044°
Arg perigee
93.1083°
Mean anomaly
267.0247°
Rev number
25,999

§ Raw data

ONEWEB-01871 48221U 21031M   26257.48420679  .00000132  00000+0  32194-3 0  99932 48221  87.8892 271.9044 0001752  93.1083 267.0247 13.14504210259990

JSON: /api/v1/satellites/48221 · /tle

For live sub-satellite position, see the globe view (requires WebGL).

§ Visibility from observer

Set your observer location to see the next 7 days of passes ≥ 10°. The values pass through the URL so the page stays shareable.

No JS? Fill the form by hand. The geolocation button needs JavaScript.